User: anonymous   Login
Location: Aressy
(43.2833°N, 0.3167°W)
Time: 00:07:44
(UTC+00:00)
Language:

FengYun 1-2 T - Orbit

View from above orbital plane
View from above orbital plane
View from above satellite
View from above satellite

Ground track
Ground track

The orbit data is extracted from the following two-line orbital elements,

1 20855U 90081T   21110.57111744 -.00000056  00000-0 -82129-5 0  9993
2 20855  98.7045 121.4620 0024985  59.7402  48.6645 14.08691159574076
Epoch (UTC): 20 April 2021 13:42:24
Eccentricity: 0.0024985
inclination: 98.7045°
perigee height: 846 km
apogee height: 882 km
right ascension of ascending node: 121.4620°
argument of perigee: 59.7402°
revolutions per day: 14.08691159
mean anomaly at epoch: 48.6645°
orbit number at epoch: 57407

The dashed part of the orbit path shows where the satellite is in the earth's shadow,  

DLR